[[{"header":{"parameterUnit":"m.s-1","parameterCategory":1,"la1":30.2991,"la2":30.254,"lo1":-89.0895,"lo2":-89.0444,"dy":0.0017,"dx":0.0017,"nx":28,"ny":28,"refTime":"2023-10-25T21:00:00:Z","depth":0,"parameterNumber":2,"parameterNumberName":"U-component_of_WINDS"},"data":[0,0,0,0,0,0,0,0,0,0,0,0,0,0,0,0,0,0,0,0,0,0,0,0,0,0,0,0,0,0,0,0,0,0,0,0,0,0,0,0,0,0,0,0,0,0,0,0,0,0,0,0,0,0,0,0,0,0,-3.671,-3.6711,0,-3.6783,-3.6784,-3.6785,-3.676,-3.6758,-3.6757,-3.6755,-3.6829,-3.6833,-3.6836,0,0,0,0,0,0,0,0,0,0,0,0,0,-3.655,-3.6553,-3.671,-3.6711,-3.6712,-3.6783,-3.6784,-3.6785,-3.676,-3.6758,-3.6756,-3.6754,-3.6828,-3.6832,-3.6837,0,0,0,0,0,0,0,0,0,0,0,0,0,-3.6621,-3.6554,-3.6709,-3.6708,-3.6708,-3.6783,-3.6784,-3.6786,-3.6761,-3.6758,-3.6756,-3.6754,-3.6827,-3.6832,-3.6837,-3.6918,0,0,-3.6853,-3.6855,0,0,0,0,0,0,0,0,-3.6617,-3.6627,-3.6707,-3.6708,-3.6709,-3.676,-3.6755,-3.683,-3.6761,-3.6741,-3.6755,-3.6752,-3.6808,-3.6815,-3.6834,-3.6921,-3.6924,-3.6854,-3.6857,-3.6859,-3.686,0,0,0,0,0,0,0,-3.6612,-3.6624,-3.6739,-3.6708,-3.6709,-3.6704,-3.6712,-3.6769,-3.6787,-3.6742,-3.6741,-3.675,-3.6808,-3.6829,-3.6835,-3.6925,-3.6853,-3.6858,-3.6861,-3.6863,-3.7088,-3.709,0,0,0,0,0,0,-3.6607,-3.662,-3.6736,-3.6741,-3.6656,-3.6709,-3.6717,-3.6746,-3.6786,-3.679,-3.6752,-3.6748,-3.6821,-3.6829,-3.6838,-3.6937,-3.6859,-3.6864,-3.6867,-3.7085,-3.7088,-3.7091,0,0,0,0,0,0,-3.6603,-3.6617,-3.6733,-3.668,-3.6694,-3.6714,-3.6747,-3.6749,-3.6769,-3.6794,-3.6797,-3.6769,-3.682,-3.6831,-3.6899,-3.6939,-3.6866,-3.6871,-3.7081,-3.7086,-3.709,-3.7135,0,0,0,0,0,0,-3.6599,-3.6616,-3.6646,-3.6681,-3.6697,-3.6792,-3.6749,-3.6752,-3.6778,-3.6775,-3.6811,-3.6815,-3.6819,-3.6892,-3.6904,-3.6945,-3.6875,-3.7078,-3.7083,-3.7088,-3.713,-3.714,-3.7149,0,0,0,0,0,-3.6593,-3.6654,-3.6647,-3.6662,-3.6735,-3.6795,-3.6804,-3.6808,-3.6782,-3.6812,-3.6829,-3.6813,-3.6934,-3.6899,-3.6913,-3.6956,-3.7075,-3.7082,-3.7088,-3.7125,-3.7138,-3.7148,0,0,0,0,0,0,-3.6621,-3.6658,-3.6651,-3.6725,-3.6758,-3.679,-3.6828,-3.682,-3.6859,-3.6854,-3.6857,-3.6866,-3.6937,-3.6954,-3.6914,-3.7039,-3.7001,-3.701,-3.7024,-3.7036,-3.7046,-3.7039,-3.6879,0,0,0,0,0,-3.6637,-3.6682,-3.6712,-3.6775,-3.6791,-3.6808,-3.6834,-3.6835,-3.6867,-3.688,-3.6902,-3.6934,-3.698,-3.7009,-3.7052,-3.7133,-3.7142,-3.717,-3.718,-3.7188,-3.7195,-3.7243,-3.7256,-3.7112,-3.7112,-3.7112,0,0,-3.6667,-3.6693,-3.6721,-3.6781,-3.6806,-3.6854,-3.6819,-3.687,-3.6906,-3.6888,-3.6954,-3.6972,-3.7009,-3.7085,-3.712,-3.7101,-3.7238,-3.7196,-3.7202,-3.7205,-3.7251,-3.7264,-3.7277,-3.7117,-3.7116,-3.7115,0,0,-3.6747,-3.6772,-3.6828,-3.6855,-3.6894,-3.6905,-3.6919,-3.6955,-3.6967,-3.7034,-3.7023,-3.7067,-3.7144,-3.7172,-3.7197,-3.7296,-3.7284,-3.731,-3.7358,-3.7405,-3.7416,-3.7426,-3.7463,-3.7476,-3.7318,-3.7318,-3.7318,0,-3.678,-3.6851,-3.6857,-3.6911,-3.6939,-3.6928,-3.6986,-3.7012,-3.7063,-3.7083,-3.7063,-3.7163,-3.7187,-3.7271,-3.7296,-3.7316,-3.7333,-3.7304,-3.7414,-3.7425,-3.7434,-3.7469,-3.7483,-3.7321,-3.7321,-3.732,-3.732,0,-3.6891,-3.6941,-3.6982,-3.7034,-3.7067,-3.7122,-3.7138,-3.7171,-3.7172,-3.7186,-3.7257,-3.7287,-3.7337,-3.7358,-3.7357,-3.7444,-3.7432,-3.7413,-3.7375,-3.7451,-3.7484,-3.7497,-3.7325,-3.7324,-3.7323,-3.7322,0,0,-3.6985,-3.7044,-3.7059,-3.7084,-3.713,-3.7169,-3.7227,-3.7278,-3.7307,-3.7345,-3.7393,-3.7463,-3.7447,-3.7475,-3.7479,-3.752,-3.7599,-3.7496,-3.7497,-3.7515,-3.7699,-3.7712,-3.7727,-3.7593,-3.7596,-3.7598,-3.7696,0,-3.7069,-3.7169,-3.7179,-3.7269,-3.7318,-3.7312,-3.7362,-3.7397,-3.7414,-3.7458,-3.7477,-3.7527,-3.7502,-3.7519,-3.756,-3.7581,-3.7636,-3.7574,-3.7639,-3.7641,-3.7628,-3.7744,-3.7757,-3.7848,-3.7709,-3.7711,-3.7713,0,-3.7179,-3.7222,-3.7318,-3.7361,-3.7382,-3.7427,-3.7477,-3.752,-3.756,-3.757,-3.7605,-3.7605,-3.7666,-3.7628,-3.7714,-3.7672,-3.77,-3.7716,-3.7719,-3.7724,-3.768,-3.7752,-3.7877,-3.7891,-3.7733,-3.7731,-3.773,0,-3.7239,-3.7321,-3.739,-3.7412,-3.7464,-3.7497,-3.752,-3.7559,-3.7591,-3.7635,-3.7657,-3.7708,-3.7735,-3.7776,-3.7791,-3.7761,-3.7877,-3.7839,-3.7888,-3.7887,-3.7909,-3.7907,-3.8041,-3.793,-3.793,-3.7929,-3.7929,0,-3.7331,-3.7389,-3.7418,-3.746,-3.7527,-3.7541,-3.7607,-3.7629,-3.7665,-3.7713,-3.7711,-3.7756,-3.7773,-3.7822,-3.7834,-3.7905,-3.7918,-3.7928,-3.7931,-3.7928,-3.7926,-3.7944,-3.7938,-3.7933,-3.7932,-3.7932,-3.7931,0,-3.7407,-3.7428,-3.7503,-3.7549,-3.7562,-3.761,-3.7649,-3.7691,-3.771,-3.7771,-3.7786,-3.7816,-3.7874,-3.7894,-3.7963,-3.7972,-3.8054,-3.8051,-3.804,-3.804,-3.8088,-3.8083,-3.8236,-3.8257,-3.8133,-3.8134,-3.8135,0,-3.7463,-3.7508,-3.7561,-3.7593,-3.7619,-3.767,-3.7704,-3.7721,-3.7757,-3.7811,-3.7847,-3.7905,-3.7951,-3.8045,-3.8073,-3.8128,-3.8126,-3.8176,-3.8134,-3.8131,-3.8127,-3.8124,-3.813,-3.8183,-3.8184,-3.8185,-3.8186,0,-3.756,-3.7571,-3.7619,-3.7674,-3.7715,-3.7758,-3.78,-3.7827,-3.7851,-3.7891,-3.7951,-3.7988,-3.8062,-3.812,-3.8177,-3.8203,-3.8199,-3.82,-3.8214,-3.8211,-3.8203,-3.8209,-3.8061,-3.8195,-3.8195,-3.8194,-3.8193,-3.8193,-3.7628,-3.767,-3.7715,-3.777,-3.7805,-3.7846,-3.7889,-3.7915,-3.7966,-3.8027,-3.8035,-3.8101,-3.8146,-3.8222,-3.8252,-3.8304,-3.829,-3.831,-3.8315,-3.832,-3.8324,-3.8196,-3.8315,-3.8314,-3.8314,-3.8314,-3.8314,0,-3.7726,-3.7756,-3.7808,-3.7868,-3.7913,-3.7909,-3.7957,-3.7995,-3.8053,-3.8096,-3.8144,-3.8215,-3.8274,-3.8309,-3.8368,-3.8404,-3.8404,-3.8419,-3.8416,-3.8422,-3.8332,-3.8314,-3.8418,-3.8418,-3.8418,-3.8418,-3.8418,-3.8418,-3.7782,-3.7853,-3.787,-3.796,-3.799,-3.8055,-3.8083,-3.8122,-3.8157,-3.8237,-3.8286,-3.831,-3.8351,-3.8415,-3.8469,-3.8479,-3.85,-3.8517,-3.8524,-3.8439,-3.8428,-3.8418,-3.8401,-3.8521,-3.8521,-3.861,-3.8611,-3.8612]},{"header":{"parameterUnit":"m.s-1","parameterCategory":1,"la1":30.2991,"la2":30.254,"lo1":-89.0895,"lo2":-89.0444,"dy":0.0017,"dx":0.0017,"nx":28,"ny":28,"refTime":"2023-10-25T21:00:00:Z","depth":0,"parameterNumber":3,"parameterNumberName":"V-component_of_WINDS"},"data":[0,0,0,0,0,0,0,0,0,0,0,0,0,0,0,0,0,0,0,0,0,0,0,0,0,0,0,0,0,0,0,0,0,0,0,0,0,0,0,0,0,0,0,0,0,0,0,0,0,0,0,0,0,0,0,0,0,0,1.5443,1.5444,0,1.5496,1.5497,1.5498,1.5573,1.5574,1.5576,1.5577,1.5626,1.5626,1.5626,0,0,0,0,0,0,0,0,0,0,0,0,0,1.5404,1.5404,1.5443,1.5444,1.5445,1.5496,1.5497,1.5498,1.5573,1.5574,1.5576,1.5577,1.5626,1.5626,1.5626,0,0,0,0,0,0,0,0,0,0,0,0,0,1.5435,1.5404,1.5443,1.5488,1.5493,1.5496,1.5497,1.5498,1.5572,1.5574,1.5576,1.5578,1.5626,1.5626,1.5626,1.5587,0,0,1.5626,1.5626,0,0,0,0,0,0,0,0,1.5433,1.5436,1.5481,1.5485,1.5491,1.553,1.5501,1.5528,1.5572,1.5542,1.5577,1.5579,1.5592,1.5595,1.5601,1.559,1.5592,1.5626,1.5627,1.5627,1.5627,0,0,0,0,0,0,0,1.5431,1.5434,1.5464,1.5482,1.5487,1.5505,1.5512,1.5506,1.5555,1.5545,1.5551,1.5556,1.5595,1.56,1.5602,1.5593,1.5626,1.5627,1.5627,1.5627,1.5554,1.5552,0,0,0,0,0,0,1.5422,1.5432,1.5462,1.5466,1.5466,1.5504,1.5512,1.5515,1.5556,1.5564,1.5554,1.5559,1.5599,1.5602,1.5604,1.5562,1.5627,1.5627,1.5627,1.5556,1.5553,1.5551,0,0,0,0,0,0,1.5421,1.5424,1.546,1.5451,1.5456,1.5503,1.5506,1.5515,1.5521,1.5563,1.5571,1.5551,1.5601,1.5604,1.5592,1.5565,1.5627,1.5627,1.5558,1.5555,1.5552,1.5477,0,0,0,0,0,0,1.542,1.5424,1.541,1.545,1.5457,1.5448,1.5505,1.5515,1.5521,1.5529,1.5562,1.5569,1.5603,1.5591,1.5592,1.5566,1.5627,1.5561,1.5557,1.5553,1.5482,1.5472,1.5464,0,0,0,0,0,1.5418,1.5385,1.5409,1.5412,1.5441,1.5446,1.545,1.549,1.5519,1.5505,1.5533,1.5568,1.5568,1.5589,1.5591,1.5565,1.5562,1.5558,1.5553,1.5487,1.5474,1.5464,0,0,0,0,0,0,1.5339,1.5391,1.5418,1.5397,1.5417,1.5459,1.5443,1.5476,1.5486,1.5492,1.554,1.5547,1.5529,1.5546,1.5568,1.553,1.5571,1.5566,1.552,1.5508,1.5499,1.5495,1.5627,0,0,0,0,0,1.532,1.5321,1.5366,1.5343,1.5352,1.5395,1.5399,1.5429,1.545,1.5458,1.5485,1.5503,1.5507,1.5509,1.5515,1.5486,1.5494,1.5469,1.5459,1.5451,1.5446,1.5433,1.5422,1.5536,1.5536,1.5536,0,0,1.5279,1.5307,1.5305,1.5328,1.5347,1.5346,1.5402,1.5398,1.5398,1.5457,1.5448,1.5468,1.5491,1.5471,1.5463,1.5484,1.5417,1.5446,1.5439,1.5438,1.5427,1.5416,1.5407,1.5533,1.5534,1.5534,0,0,1.5204,1.5226,1.521,1.5228,1.5257,1.5286,1.5282,1.532,1.5336,1.5328,1.5373,1.5372,1.5378,1.5394,1.5402,1.5335,1.5368,1.5336,1.5285,1.5272,1.5263,1.5255,1.5231,1.5222,1.5331,1.5331,1.5331,0,1.5148,1.515,1.5197,1.5191,1.52,1.5257,1.5241,1.5256,1.5284,1.5288,1.5312,1.5322,1.5342,1.5326,1.531,1.5315,1.5311,1.5331,1.5261,1.5253,1.5247,1.5224,1.5215,1.5327,1.5327,1.5327,1.5328,0,1.5082,1.5082,1.5066,1.5094,1.5101,1.509,1.5134,1.5136,1.5165,1.5192,1.5183,1.5209,1.5222,1.522,1.5248,1.5209,1.5221,1.5252,1.5294,1.5231,1.5211,1.5203,1.5321,1.5322,1.5323,1.5324,0,0,1.4956,1.5013,1.5006,1.502,1.5056,1.5057,1.5048,1.5063,1.5064,1.5081,1.5075,1.508,1.511,1.5119,1.5149,1.5137,1.5083,1.517,1.5172,1.5153,1.5041,1.5017,1.5006,1.5106,1.5104,1.5103,1.5039,0,1.4888,1.4879,1.4921,1.49,1.4901,1.4956,1.4949,1.4969,1.4994,1.4998,1.5025,1.5028,1.5067,1.5073,1.5064,1.5091,1.5061,1.5097,1.5099,1.5099,1.5091,1.4996,1.497,1.4908,1.5031,1.503,1.5029,0,1.4807,1.4823,1.4803,1.4842,1.4844,1.4837,1.4854,1.4858,1.4882,1.4901,1.4913,1.4949,1.4943,1.4983,1.4975,1.4998,1.5002,1.5015,1.5014,1.5015,1.5059,1.4994,1.4889,1.488,1.5017,1.5018,1.5019,0,1.4718,1.4734,1.4725,1.4735,1.478,1.4774,1.4792,1.4819,1.4826,1.4841,1.4845,1.4858,1.4865,1.4874,1.4912,1.4938,1.4899,1.4943,1.4914,1.4913,1.4902,1.4902,1.4796,1.4905,1.4905,1.4905,1.4906,0,1.4637,1.4622,1.4686,1.4679,1.4664,1.4713,1.4697,1.472,1.4744,1.4743,1.479,1.4787,1.4839,1.4841,1.4871,1.4859,1.4862,1.4876,1.4884,1.4872,1.487,1.4874,1.4879,1.4903,1.4904,1.4904,1.4904,0,1.4535,1.4577,1.457,1.4614,1.4625,1.4612,1.4649,1.4645,1.4674,1.4671,1.4673,1.4718,1.4724,1.4763,1.4777,1.4797,1.4775,1.4791,1.4767,1.4772,1.474,1.4743,1.4633,1.4621,1.4738,1.4736,1.4735,0,1.448,1.4471,1.4515,1.4519,1.4535,1.454,1.4548,1.4596,1.4601,1.463,1.4622,1.4632,1.4643,1.4649,1.4682,1.4693,1.471,1.4671,1.4711,1.4699,1.4709,1.4709,1.4708,1.4661,1.466,1.4659,1.4658,0,1.4379,1.4401,1.4411,1.4429,1.4437,1.4453,1.4471,1.4471,1.4524,1.4528,1.4536,1.4544,1.456,1.4569,1.4586,1.4604,1.4639,1.4645,1.4639,1.4625,1.4612,1.4619,1.4742,1.4647,1.4648,1.4649,1.4649,1.465,1.4299,1.4294,1.4324,1.4334,1.4354,1.437,1.4369,1.4399,1.4407,1.4425,1.4452,1.4456,1.4482,1.4509,1.4523,1.4526,1.4547,1.4538,1.4535,1.4532,1.4526,1.4612,1.4529,1.453,1.453,1.453,1.4531,0,1.42,1.4224,1.4233,1.4258,1.4266,1.4301,1.4324,1.4327,1.4331,1.4353,1.4363,1.4372,1.4382,1.4416,1.4429,1.4424,1.4441,1.4426,1.4427,1.443,1.4507,1.4511,1.4413,1.4413,1.4413,1.4413,1.4413,1.4413,1.415,1.4143,1.4168,1.4171,1.4194,1.42,1.421,1.4225,1.4243,1.4252,1.4261,1.4284,1.431,1.4326,1.4336,1.4346,1.4348,1.4328,1.4342,1.4413,1.4425,1.4435,1.4439,1.4328,1.4328,1.4266,1.4265,1.4265]}]]